Oxford, NC

1:53 AM EDT on September 22, 2017 (GMT -0400)
Henderson-Oxford

Weather History for KHNZ - March, 2014

Change the Weather History Date:

Thursday, March 6, 2014

  Actual Average (KTDF) Record (KTDF)
Temperature  
Mean Temperature 34 °F -  
Max Temperature 38 °F 59 °F 80 °F (1976)
Min Temperature 29 °F 35 °F 13 °F (1960)
Degree Days  
Heating Degree Days 32    
Moisture  
Dew Point 21 °F    
Average Humidity 63    
Maximum Humidity 92    
Minimum Humidity 43    
Precipitation  
Precipitation 0.15 in - - ()
Sea Level Pressure  
Sea Level Pressure 30.31 in    
Wind  
Wind Speed 10 mph (NE)    
Max Wind Speed 16 mph    
Max Gust Speed 24 mph    
Visibility 9 miles    
Events Rain , Snow    
Averages and records for this station are not official NWS values.
T = Trace of Precipitation, MM = Missing Value Source: NWS Daily Summary

Daily Weather History Graph

Daily Weather History Graph

Search for Another Location

Airport or City:

Trip Planner

Search our weather history database for the weather conditions in past years. The results will help you decide how hot, cold, wet, or windy it might be!

Date:

Astronomy

Mar. 06, 2014 Rise Set
Actual Time 6:37 AM EST 6:13 PM EST
Civil Twilight 6:12 AM EST 6:39 PM EST
Nautical Twilight 5:42 AM EST 7:09 PM EST
Astronomical Twilight 5:12 AM EST 7:38 PM EST
Moon 9:53 AM EST (3/6) No Moon Set
Length of Visible Light 12h 27m
Length of Day
11h 35m
Waxing Crescent, 32% of the Moon is Illuminated
Mar 6
Waxing Crescent
Mar 8
First Quarter
Mar 16
Full
Mar 23
Last Quarter
Mar 30
New

Hourly Weather History & Observations

Time (EST) Temp. Windchill Dew Point Humidity Pressure Visibility Wind Dir Wind Speed Gust Speed Precip Events Conditions
12:15 AM 31.3 °F 25.6 °F 16.5 °F 54% 30.31 in 10.0 mi NE 5.8 mph - N/A   Clear
12:35 AM 31.8 °F 26.2 °F 15.4 °F 51% 30.31 in 10.0 mi NE 5.8 mph - N/A   Clear
12:55 AM 31.5 °F 24.9 °F 14.7 °F 50% 30.32 in 10.0 mi NE 6.9 mph - N/A   Clear
1:15 AM 32.0 °F 25.6 °F 14.0 °F 48% 30.32 in 10.0 mi NNE 6.9 mph - N/A   Clear
1:35 AM 32.0 °F 24.8 °F 13.3 °F 46% 30.31 in 10.0 mi NE 8.1 mph - N/A   Clear
1:55 AM 32.0 °F 24.8 °F 13.1 °F 46% 30.30 in 10.0 mi NE 8.1 mph - N/A   Clear
2:15 AM 32.0 °F 24.8 °F 12.7 °F 45% 30.30 in 10.0 mi NE 8.1 mph - N/A   Clear
2:35 AM 32.0 °F 23.6 °F 12.4 °F 44% 30.29 in 10.0 mi NE 10.4 mph 16.1 mph N/A   Clear
2:55 AM 32.0 °F 23.6 °F 12.4 °F 44% 30.29 in 10.0 mi NE 10.4 mph - N/A   Clear
3:15 AM 32.0 °F 24.2 °F 11.7 °F 43% 30.30 in 10.0 mi NE 9.2 mph - N/A   Clear
3:35 AM 31.6 °F 22.6 °F 12.2 °F 45% 30.30 in 10.0 mi NE 11.5 mph - N/A   Clear
3:55 AM 31.5 °F 24.2 °F 13.1 °F 47% 30.31 in 10.0 mi NNE 8.1 mph - N/A   Clear
4:15 AM 31.5 °F 24.2 °F 14.0 °F 49% 30.32 in 10.0 mi NE 8.1 mph - N/A   Clear
4:35 AM 31.1 °F 22.4 °F 14.7 °F 51% 30.33 in 10.0 mi NNE 10.4 mph - N/A   Clear
4:55 AM 31.1 °F 22.4 °F 15.6 °F 53% 30.33 in 10.0 mi NE 10.4 mph - N/A   Clear
5:15 AM 30.9 °F 21.7 °F 16.7 °F 56% 30.34 in 10.0 mi NNE 11.5 mph 17.3 mph N/A   Clear
5:35 AM 30.7 °F 22.0 °F 17.6 °F 58% 30.35 in 10.0 mi NE 10.4 mph 16.1 mph N/A   Clear
5:55 AM 30.6 °F 23.1 °F 17.6 °F 59% 30.36 in 10.0 mi NE 8.1 mph 16.1 mph N/A   Clear
6:15 AM 30.2 °F 21.9 °F 17.6 °F 60% 30.36 in 10.0 mi NNE 9.2 mph - N/A   Clear
6:35 AM 30.0 °F 20.5 °F 17.4 °F 59% 30.35 in 10.0 mi NNE 11.5 mph - N/A   Clear
6:55 AM 29.7 °F 21.3 °F 17.2 °F 60% 30.37 in 10.0 mi NNE 9.2 mph 17.3 mph N/A   Clear
7:15 AM 30.2 °F 21.9 °F 17.2 °F 59% 30.38 in 10.0 mi NNE 9.2 mph - N/A   Clear
7:35 AM 31.1 °F 22.4 °F 17.1 °F 56% 30.39 in 10.0 mi NNE 10.4 mph 16.1 mph N/A   Clear
7:55 AM 31.5 °F 21.8 °F 17.4 °F 56% 30.39 in 10.0 mi NNE 12.7 mph 16.1 mph N/A   Clear
8:15 AM 32.0 °F 22.5 °F 17.8 °F 56% 30.39 in 10.0 mi NE 12.7 mph 17.3 mph N/A   Clear
8:35 AM 32.4 °F 23.5 °F 18.3 °F 56% 30.40 in 10.0 mi NE 11.5 mph 17.3 mph N/A   Clear
8:55 AM 33.4 °F 25.9 °F 18.7 °F 55% 30.41 in 10.0 mi NE 9.2 mph 19.6 mph N/A   Clear
9:15 AM 33.4 °F 24.8 °F 18.3 °F 54% 30.41 in 10.0 mi NNE 11.5 mph 20.7 mph N/A   Clear
9:35 AM 34.5 °F 25.7 °F 18.7 °F 52% 30.40 in 10.0 mi NNE 12.7 mph 18.4 mph N/A   Clear
9:55 AM 34.9 °F 26.6 °F 18.7 °F 52% 30.40 in 10.0 mi NNE 11.5 mph 19.6 mph N/A   Clear
10:15 AM 36.3 °F 27.1 °F 18.7 °F 49% 30.38 in 10.0 mi NNE 15.0 mph 21.9 mph N/A   Clear
10:35 AM 36.7 °F 28.4 °F 18.7 °F 48% 30.38 in 10.0 mi NNE 12.7 mph 20.7 mph N/A   Clear
10:55 AM 37.6 °F 29.1 °F 19.0 °F 47% 30.38 in 10.0 mi NE 13.8 mph 20.7 mph N/A   Clear
11:15 AM 37.6 °F 29.1 °F 19.4 °F 48% 30.37 in 10.0 mi NE 13.8 mph 21.9 mph N/A   Clear
11:35 AM 37.6 °F 29.6 °F 19.8 °F 49% 30.37 in 10.0 mi ENE 12.7 mph 18.4 mph N/A   Clear
11:55 AM 37.6 °F 29.6 °F 20.5 °F 50% 30.36 in 10.0 mi NE 12.7 mph 18.4 mph N/A   Scattered Clouds
12:15 PM 37.6 °F 28.8 °F 21.2 °F 52% 30.36 in 10.0 mi NNE 15.0 mph 19.6 mph N/A   Clear
12:35 PM 37.9 °F 30.0 °F 21.9 °F 53% 30.35 in 10.0 mi NNE 12.7 mph 20.7 mph N/A   Scattered Clouds
12:55 PM 38.5 °F 30.7 °F 22.8 °F 53% 30.34 in 10.0 mi NNE 12.7 mph 19.6 mph N/A   Scattered Clouds
1:15 PM 37.8 °F 29.4 °F 23.0 °F 55% 30.34 in 10.0 mi NE 13.8 mph 21.9 mph N/A   Scattered Clouds
1:35 PM 37.8 °F 30.2 °F 23.0 °F 55% 30.33 in 10.0 mi NNE 11.5 mph 18.4 mph N/A   Mostly Cloudy
1:55 PM 37.8 °F 30.7 °F 23.0 °F 55% 30.32 in 10.0 mi NE 10.4 mph 19.6 mph N/A   Overcast
2:15 PM 37.9 °F 30.5 °F 23.2 °F 55% 30.32 in 10.0 mi NE 11.5 mph - N/A   Overcast
2:35 PM 37.4 °F 28.5 °F 23.4 °F 57% 30.31 in 10.0 mi NE 15.0 mph 24.2 mph N/A   Overcast
2:55 PM 37.6 °F 29.1 °F 23.7 °F 57% 30.28 in 10.0 mi NE 13.8 mph - N/A   Overcast
3:15 PM 37.4 °F 28.5 °F 23.5 °F 57% 30.28 in 10.0 mi NNE 15.0 mph 20.7 mph N/A   Overcast
3:35 PM 36.7 °F 29.4 °F 23.7 °F 59% 30.28 in 10.0 mi NE 10.4 mph 21.9 mph N/A   Overcast
3:55 PM 36.1 °F 28.2 °F 23.5 °F 60% 30.28 in 10.0 mi NNE 11.5 mph 19.6 mph N/A   Overcast
4:15 PM 36.0 °F 27.5 °F 23.9 °F 62% 30.29 in 10.0 mi NE 12.7 mph - N/A   Overcast
4:35 PM 35.6 °F 27.5 °F 25.0 °F 65% 30.29 in 10.0 mi NE 11.5 mph 23.0 mph N/A   Overcast
4:55 PM 35.6 °F 29.2 °F 25.0 °F 65% 30.29 in 10.0 mi NE 8.1 mph - N/A   Overcast
5:15 PM 35.1 °F 26.4 °F 24.8 °F 66% 30.29 in 10.0 mi NE 12.7 mph 19.6 mph N/A   Overcast
5:35 PM 34.2 °F 24.0 °F 26.2 °F 73% 30.29 in 7.0 mi NE 16.1 mph 19.6 mph N/A Rain Light Rain
5:55 PM 33.4 °F 23.5 °F 26.4 °F 75% 30.29 in 10.0 mi NE 15.0 mph 21.9 mph N/A Rain Light Rain
6:15 PM 32.9 °F 23.2 °F 27.5 °F 81% 30.29 in 5.0 mi NE 13.8 mph 18.4 mph N/A   Overcast
6:35 PM 32.4 °F 22.5 °F 27.9 °F 83% 30.28 in 4.0 mi NNE 13.8 mph 18.4 mph 0.01 in   Overcast
6:55 PM 32.0 °F 23.0 °F 28.0 °F 85% 30.28 in 5.0 mi NE 11.5 mph 18.4 mph 0.01 in Snow Light Snow
7:15 PM 32.0 °F 23.6 °F 28.2 °F 86% 30.27 in 4.0 mi NNE 10.4 mph 19.6 mph 0.01 in   Overcast
7:35 PM 31.6 °F 22.6 °F 28.6 °F 88% 30.26 in 4.0 mi NNE 11.5 mph 18.4 mph 0.02 in Snow Light Snow
7:55 PM 31.3 °F 21.1 °F 28.9 °F 91% 30.25 in 5.0 mi NNE 13.8 mph 20.7 mph 0.03 in   Overcast
8:20 PM 31.3 °F 20.7 °F 29.1 °F 92% 30.24 in 5.0 mi NNE 15.0 mph 20.7 mph N/A   Overcast
8:35 PM 31.1 °F 21.9 °F 29.1 °F 92% 30.25 in 7.0 mi NNE 11.5 mph 19.6 mph N/A   Overcast
8:55 PM 31.5 °F 22.3 °F 29.3 °F 92% 30.24 in 5.0 mi NNE 11.5 mph 18.4 mph N/A   Overcast
9:15 PM 31.5 °F 24.2 °F 29.3 °F 92% 30.24 in 5.0 mi NNE 8.1 mph - 0.01 in   Overcast
9:35 PM 31.5 °F 22.9 °F 29.3 °F 92% 30.24 in 5.0 mi NNE 10.4 mph - 0.02 in   Overcast
9:55 PM 31.5 °F 23.5 °F 29.3 °F 92% 30.24 in 5.0 mi NNE 9.2 mph - 0.04 in   Overcast
10:15 PM 31.5 °F 23.5 °F 29.3 °F 92% 30.23 in 5.0 mi NNE 9.2 mph 16.1 mph 0.01 in   Overcast
10:35 PM 31.5 °F 22.9 °F 29.3 °F 92% 30.23 in 5.0 mi NE 10.4 mph - 0.02 in   Overcast
10:55 PM 31.1 °F 23.1 °F 29.1 °F 92% 30.22 in 7.0 mi NNE 9.2 mph 16.1 mph 0.02 in   Overcast
11:15 PM 31.1 °F 23.1 °F 28.9 °F 92% 30.21 in 7.0 mi NNE 9.2 mph - 0.01 in   Overcast
11:35 PM 31.1 °F 23.1 °F 29.1 °F 92% 30.19 in 5.0 mi NNE 9.2 mph 16.1 mph 0.03 in Snow Light Snow
11:55 PM 31.1 °F 23.1 °F 29.1 °F 92% 30.18 in 5.0 mi NNE 9.2 mph - 0.05 in Snow Light Snow